www.pogodaiklimat.ru

Погода и климат >> Архив погоды >> Индия >> Machilipatnam


ПОГОДА в Machilipatnam

  • Прогноз погоды в Machilipatnam
  • Монитор погоды в Machilipatnam
  • Климат города

АРХИВ ПОГОДЫ в Machilipatnam

Время (UTC), дата Ветер
(напр.,м/с)
 
Видим.   Явления Облачность Т
(С)
Тd
(С)
f
(%)
Тe
(С)
Тes
(С)
Комфортность P
(гПа)
Po
(гПа)
Тmin
(С)
Tmax
(С)
R
(мм)
R24
(мм)
S
(см)
21 10.10 С 1 4000 м 6/4 600 м
[Sc]
+26.4 +20.0 68 +32 +32 очень
душно
1002.0 1001.7
00 11.10 С 2 4000 м 4/3 600 м
[Sc Ci fib]
+25.4 +19.9 72 +31 +31 очень
душно
1002.0 1001.7
03 11.10 СЗ 2 10 км 10/4 600 м
[Sc Ac As]
+26.8 +20.4 68 +33 +34 очень
душно
1004.2 1003.9 +25.0 +33.6
06 11.10 СЗ 2 10 км 9/4 600 м
[Sc Ac trans Cs]
+32.0 +20.3 50 +39 +45 очень
душно
1003.8 1003.5
09 11.10 З 1 10 км 10/6 600 м
[Sc As trans]
+33.4 +20.9 48 +41 +43 опасность
перегрева
1001.6 1001.3
12 11.10 З 2 10 км 10/5 600 м
[Sc As trans]
+31.6 +20.9 53 +39 +39 очень
душно
1002.4 1002.1 +33.6
15 11.10 З 2 4000 м 5/3 600 м
[Sc Ci fib]
+29.2 +19.4 56 +35 +35 очень
душно
1005.4 1005.1
18 11.10 СЗ 2 4000 м 5/3 600 м
[Sc Ci fib]
+28.2 +21.3 66 +36 +36 очень
душно
1006.3 1006.0
21 11.10 штиль 0 10 км 6/4 600 м
[Sc Ac trans]
+27.2 +21.8 72 +35 +35 очень
душно
1005.0 1004.7
00 12.10 штиль 0 4000 м 6/4 600 м
[Sc Ac trans]
+26.2 +20.7 72 +33 +33 очень
душно
1005.9 1005.6
03 12.10 З 2 10 км 8/5 600 м
[Sc Ac trans]
+30.0 +20.3 56 +37 +39 очень
душно
1007.9 1007.6 +25.6 +33.6
06 12.10 З 1 10 км 6/4 600 м
[Sc Ac trans]
+33.4 +22.7 54 +43 +53 опасность
перегрева
1007.2 1006.9
09 12.10 З 2 10 км 5/3 600 м
[Sc Ci fib]
+34.2 +23.9 55 +46 +54 опасность
перегрева
1005.5 1005.2
12 12.10 ЮВ 2 10 км 4/1 600 м
[Sc Ci fib]
+31.2 +23.7 64 +42 +42 опасность
перегрева
1005.8 1005.5 +35.6
15 12.10 Ю 1 4000 м ясно +29.4 +26.9 86 +46 +46 опасность
перегрева
1007.4 1007.1
18 12.10 Ю 1 4000 м мгла ясно +28.6 +25.5 83 +42 +42 опасность
перегрева
1008.4 1008.1
21 12.10 штиль 0 4000 м мгла ясно +27.8 +26.1 90 +42 +42 опасность
перегрева
1007.4 1007.1
00 13.10 штиль 0 4000 м мгла 6/4 600 м
[Sc Ac trans]
+27.2 +25.8 92 +40 +40 очень
душно
1008.4 1008.1
03 13.10 З 1 4000 м мгла 4/3 600 м
[Sc Ci fib]
+30.6 +26.4 78 +47 +51 опасность
перегрева
1010.9 1010.6 +27.0 +35.6
06 13.10 штиль 0 10 км 9/9
[Cu Sc]
+35.2 +21.8 46 +43 +46 опасность
перегрева
1010.0 1009.7
09 13.10 штиль 0 10 км {гроза, дождь} 9/8 600 м
[Cb cap Ac trans]
+27.0 +25.6 92 +40 +42 очень
душно
1008.0 1007.7 27
12 13.10 Ю 2 4000 м мгла {гроза, дождь} 9/1 600 м
[Sc Ac trans Ci fib]
+29.6 +25.4 78 +43 +43 опасность
перегрева
1008.4 1008.1 +35.1 27
15 13.10 Ю 2 4000 м мгла 4/3 600 м
[Sc Ac trans]
+28.4 +25.6 85 +42 +42 опасность
перегрева
1010.0 1009.7 27
18 13.10 Ю 2 4000 м мгла 5/3 600 м
[Sc Ac trans]
+28.0 +25.7 87 +41 +41 опасность
перегрева
1010.6 1010.3 27
21 13.10 штиль 0 4000 м мгла 8/4 600 м
[Sc Ac trans Ci fib]
+27.8 +26.1 90 +42 +42 опасность
перегрева
1009.6 1009.3 27
00 14.10 штиль 0 4000 м мгла 5/3 600 м
[Sc Ac trans]
+27.0 +25.3 90 +39 +39 очень
душно
1010.4 1010.1 27
03 14.10 Ю 2 4000 м мгла 5/3 600 м
[Sc Ci fib]
+30.4 +26.5 80 +47 +51 опасность
перегрева
1012.1 1011.8 +26.9 +35.1 27
06 14.10 ЮВ 3 10 км 9/8 600 м
[Cb cap Ac trans]
+32.6 +27.1 73 +51 +53 опасность
перегрева
1011.2 1010.9
09 14.10 штиль 0 10 км слабая морось {гроза, дождь} 6/5 600 м
[Cu Sc Ac trans]
+28.6 +25.5 83 +42 +49 опасность
перегрева
1008.9 1008.6 57
12 14.10 Ю 1 4000 м мгла {гроза, дождь} 6/5 600 м
[Cu Sc Ac trans]
+29.6 +26.0 81 +44 +45 опасность
перегрева
1008.9 1008.6 +33.4 57
15 14.10 Ю 2 4000 м мгла 6/4 600 м
[Sc Ac trans]
+28.2 +26.2 89 +43 +43 опасность
перегрева
1011.4 1011.1 57
18 14.10 Ю 2 4000 м мгла 6/4 600 м
[Sc Ac trans]
+27.8 +26.1 90 +42 +42 опасность
перегрева
1010.9 1010.6 57
21 14.10 Ю 1 4000 м мгла 4/3 600 м
[Sc Ac trans]
+27.0 +25.9 94 +40 +40 очень
душно
1010.5 1010.2 57
00 15.10 штиль 0 4000 м мгла 4/3 600 м
[Sc Ac trans]
+26.6 +25.7 95 +39 +39 очень
душно
1010.9 1010.6 57
03 15.10 штиль 0 4000 м мгла 6/6 600 м
[Cu Sc]
+29.4 +27.2 88 +47 +50 опасность
перегрева
1012.8 1012.5 +26.6 +33.4 57
06 15.10 штиль 0 4000 м мгла {гроза, дождь} 8/6 600 м
[Cu Sc Ac trans]
+30.8 +26.3 77 +47 +53 опасность
перегрева
1012.5 1012.2 3
09 15.10 СЗ 1 10 км гроза без осадков 6/4 600 м
[Cb cap Ac trans]
+32.6 +26.2 69 +49 +55 опасность
перегрева
1010.3 1010.0 3
12 15.10 штиль 0 10 км {гроза} 5/3 600 м
[Sc Ac trans Ci fib]
+29.4 +26.0 82 +44 +44 опасность
перегрева
1010.8 1010.5 +33.2 3
15 15.10 штиль 0 4000 м 5/5 600 м
[Sc]
+28.4 +25.6 85 +42 +42 опасность
перегрева
1012.6 1012.3 3
18 15.10 штиль 0 4000 м 6/6 600 м
[Sc]
+28.2 +25.4 85 +41 +41 опасность
перегрева
1012.5 1012.2 3
21 15.10 штиль 0 4000 м 8/5 600 м
[Sc Ac trans]
+27.4 +26.0 92 +41 +41 опасность
перегрева
1011.0 1010.7 3
00 16.10 С 1 4000 м 5/3 600 м
[Sc Ac trans]
+26.4 +24.4 89 +37 +37 очень
душно
1011.1 1010.8 3
03 16.10 штиль 0 4000 м в посл. час гроза 10/5 600 м
[Cb calv Ac As]
+26.6 +24.6 89 +38 +39 очень
душно
1014.4 1014.1 +26.0 +33.2 3
06 16.10 В 1 10 км {гроза} 6/5 600 м
[Sc diur, vesp Ac trans]
+31.8 +26.5 74 +49 +57 опасность
перегрева
1013.2 1012.9
09 16.10 Ю 2 10 км 8/5 600 м
[Cu Sc Ac trans]
+30.4 +25.9 77 +45 +49 опасность
перегрева
1010.3 1010.0
12 16.10 ЮВ 1 10 км 8/5 600 м
[Sc Ac trans]
+29.0 +25.3 80 +42 +42 опасность
перегрева
1010.5 1010.2 +32.6
15 16.10 В 1 4000 м гроза без осадков 9/6 600 м
[Cb cap Ac As]
+28.2 +25.7 86 +42 +42 опасность
перегрева
1013.0 1012.7
18 16.10 штиль 0 4000 м гроза без осадков 9/6 600 м
[Cb cap Ac As]
+27.6 +25.3 87 +40 +40 очень
душно
1013.2 1012.9
21 16.10 штиль 0 4000 м {гроза, дождь} 9/6 600 м
[Cu Sc Ac As]
+26.2 +24.8 92 +37 +37 очень
душно
1011.1 1010.8 0.5
00 17.10 штиль 0 4000 м зарница {гроза, дождь} 10/6 600 м
[Cb cap Ac As]
+26.0 +24.9 94 +37 +37 очень
душно
1011.5 1011.1 0.5
03 17.10 штиль 0 4000 м мгла 9/8 600 м
[Cb cap Ac trans]
+27.8 +25.8 89 +41 +43 опасность
перегрева
1013.6 1013.3 +25.8 +32.6 0.5
06 17.10 штиль 0 10 км {дождь, морось} 10/8 600 м
[Cu Sc Ac As]
+27.2 +24.3 84 +38 +39 очень
душно
1012.5 1012.2 19
09 17.10 Ю 1 10 км 9/6 600 м
[Cb cap Ac trans]
+29.0 +25.6 82 +43 +46 опасность
перегрева
1009.5 1009.2 19
12 17.10 В 2 4000 м мгла 9/4 600 м
[Sc Ac trans Ci sp]
+29.2 +25.5 80 +43 +43 опасность
перегрева
1009.6 1009.3 +30.4 19
15 17.10 штиль 0 4000 м мгла 9/4 600 м
[Sc Ac trans Cs]
+27.6 +25.3 87 +40 +40 очень
душно
1011.8 1011.5 19

 

Местоположение метеостанции Machilipatnam (Andhra Pradesh, Индия): широта 16.20 долгота 81.15 высота над уровнем моря 3 м.

В архиве по умолчанию представлена погода в Machilipatnam за последнюю неделю. Архивные данные за месяц целиком и за предыдущие месяцы, начиная с января 2011 года, Вы можете получить, выбрав интересующий диапазон дат из раскрывающегося списка и нажав кнопку "Ввод!".


*Определитесь, кто Вы:
робот инопланетянин человек

Внимание! Время в таблицах - всемирное. Для получения местного времени необходимо прибавить поправку, которая в Machilipatnam равна 5.5 ч.

Смотрите также архив погоды в соседних городах и на ближайших метеорологических станциях:

Погода в Gannavaram (Andhra Pradesh, Индия) (52 км)
Погода в Narsapur (Andhra Pradesh, Индия) (64 км)
Погода в Bapatla (Andhra Pradesh, Индия) (80 км)
Погода в Nandigama (Andhra Pradesh, Индия) (113 км)
Погода в Ongole (Andhra Pradesh, Индия) (140 км)
Погода в Kakinada (Andhra Pradesh, Индия) (142 км)
Погода в Khammam (Telangana, Индия) (158 км)
Погода в Bhadrachalam (Telangana, Индия) (166 км)
Погода в Rentachintala (Andhra Pradesh, Индия) (175 км)
Погода в Kavali (Andhra Pradesh, Индия) (191 км)

Пояснения к столбцам:

Ветер - указаны скорость ветра в м/с - средняя за 10 мин, порывы в срок и между сроками (в фигурных скобках) и направление, откуда дует ветер: С - северный, СВ - северо-восточный, В - восточный, ЮВ - юго-восточный, Ю - южный, ЮЗ - юго-западный, З - западный, СЗ - северо-западный.
Видимость - горизонтальная дальность видимости в метрах или километрах. При видимости от 1 до 10 км при отсутствии осадков обычно наблюдается дымка, при ухудшении видимости до 1 км и менее - туман. В сухую погоду видимость может ухудшаться дымом, пылью или мглою.
Явления - указаны атмосферные явления, наблюдавшиеся в срок или в последний час перед сроком; фигурными скобками обозначены явления, наблюдавшиеся между сроками (за 1-3 часа до срока); квадратными скобками обозначены град или гололедные отложения с указанием их диаметра в мм.
Облачность - указаны через наклонную черту общая и нижняя облачность в баллах и высота нижней границы облаков в метрах; квадратными скобками обозначены формы облаков: Ci - перистые, Cs - перисто-слоистые, Cc - перисто-кучевые, Ac - высококучевые, As - высокослоистые, Sc - слоисто-кучевые, Ns - слоисто-дождевые, Cu - кучевые, Cb - кучево-дождевые. Подробнее классификацию облаков см. в Атласе облаков (PDF).
T - Температура воздуха - температура, измеренная на высоте 2 м над землей.
Td - Температура точки росы - температура, при понижении до которой содержащийся в воздухе водяной пар достигнет насыщения.
f - Относительная влажность воздуха - влажноcть воздуха, измеренная на высоте 2 м над землей.
Te - Эффективная температура - температура, которую ощущает одетый по сезону человек в тени. Характеристика душности погоды. При расчете учитывается влияние влажности воздуха и скорости ветра на теплоощущения человека.
Tes - Эффективная температура на солнце - температура, которую ощущает человек, с поправкой на солнечный нагрев. Характеристика знойности погоды. Зависит от высоты солнца над горизонтом, облачности и скорости ветра. Ночью, в пасмурную погоду, а также при ветре 12 м/с и более поправка равна нулю.
P - Атмосферное давление - приведенное к уровню моря атмосферное давление.
Po - Атмосферное давление - измеренное на уровне метеостанции атмосферное давление.
Tmin - Минимальная температура - минимум температуры воздуха на высоте 2 м над землей.
Tmax - Максимальная температура - максимум температуры воздуха на высоте 2 м над землей.
R - Количество осадков - Количество выпавших осадков за период времени, мм. При наведении курсора мыши на число - период времени, за который выпало указанное количество осадков.
R24 - Количество осадков - Количество выпавших осадков за 24 часа, мм.
S - Снежный покров - Высота снежного покрова, см. При наведении курсора мыши на число - состояние снежного покрова и степень покрытия местности в баллах.